{"data":{"norad_id":67849,"intl_designator":"2026-033AE","name":"STARLINK-36602","alt_names":[],"object_type":"PAYLOAD","status":"ACTIVE","operator":null,"country":"US","launch_date":"2026-02-16","launch_site_code":"AFETR","launch_vehicle":null,"mission":null,"orbit_class":"UNKNOWN","rcs_meters":null,"size_class":null,"mass_kg":null,"dimensions":null,"purposes":["comms"],"wikipedia_slug":null,"has_3d_model":false,"image_url":null,"decayed_at":null,"tle_current":{"epoch":"2026-05-25T03:45:41.446080Z","epoch_age_seconds":54883,"freshness":"FRESH","line1":"1 67849U 26033AE  26145.15672970  .00034048  00000+0  12403-2 0  9993","line2":"2 67849  43.0002 195.6397 0001488 270.1609  89.9072 15.27601250 16361","mean_motion":15.2760125,"eccentricity":0.0001488,"inclination_deg":43.0002,"raan_deg":195.6397,"arg_perigee_deg":270.1609,"mean_anomaly_deg":89.9072,"bstar":0.0012403,"rev_number":1636,"period_min":94.265437397357,"perigee_km":481.96453160959,"apogee_km":484.00640165566,"semimajor_km":6861.1224666326,"source":"CELESTRAK","updated_at":"2026-05-25T13:38:21.724360Z"}}}